Temp_Advection
nan nan nan nan nan nan nan nan nan nan nan nan nan nan nan nan nan nan nan nan nan nan nan nan nan nan nan nan nan nan nan nan nan nan nan nan nan nan nan nan nan nan nan nan nan
nan -0 -1 -1 -1 -1 -0 0 1 1 0 -0 -0 -0 -0 -1 -1 -1 -0 0 -0 -0 -0 -1 -1 -1 -0 -0 -1 -0 -0 -2 -2 -1 0 0 0 0 0 -0 -0 1 1 1 nan
nan 1 0 -0 -0 -0 -0 0 0 1 1 -0 -0 -0 -0 -1 -1 -1 0 0 0 0 -1 -1 -1 -0 -0 -1 -1 -0 -1 -1 -0 -1 -0 0 0 -0 -0 -0 -0 1 -0 0 nan
nan 0 0 0 1 1 0 -0 -0 1 1 0 0 -0 -0 -1 -1 0 0 -0 -0 -0 -1 -1 -1 -0 -0 -1 -1 -1 -1 -0 -1 -0 0 0 -0 -0 0 -1 -0 1 0 -0 nan
nan 0 0 0 1 0 -0 -0 -0 1 1 0 0 -0 -0 -1 -3 -1 1 -0 -0 -0 -0 -0 -1 -1 -1 -1 -1 -1 -0 -0 -0 -0 -0 -0 -1 -0 0 0 0 0 0 -1 nan
nan 1 1 1 1 0 -0 -0 -0 0 1 1 1 -0 -1 -2 -1 -0 0 0 -0 -0 -0 -1 -1 -0 -0 -1 -2 -1 0 -0 -0 -0 -0 -0 -0 0 0 -0 0 0 0 -0 nan
nan 1 1 1 1 1 0 -0 -1 -0 1 1 1 -0 -1 -2 -1 0 0 -0 -0 -0 -0 -0 -0 -1 -1 -1 -1 -1 -1 -0 0 -0 -0 0 0 -1 -1 -0 -0 -0 0 -0 nan
nan 2 2 2 1 1 0 -0 -1 -1 1 1 1 -1 -1 -0 -0 -0 -0 -0 -0 -0 -0 0 0 -0 -1 -2 -1 -0 1 -0 -1 -0 -0 0 -0 -1 -0 -0 -0 -0 -0 -0 nan
nan 1 4 3 1 1 1 -0 -1 -1 0 1 0 -1 -1 -0 -0 -0 -0 -0 -0 -0 -0 -0 0 -1 -1 -0 -0 -0 -0 -1 -2 -1 0 1 -1 -1 -0 -0 -0 -0 -0 -0 nan
nan -0 3 3 1 1 0 -0 -1 -0 0 0 -0 -0 -1 -0 0 -0 -0 -0 -0 -0 -0 -0 -0 -0 -1 -0 -1 -2 -2 -2 -1 -1 0 0 -1 -1 -0 -1 -0 -0 -0 -0 nan
nan -0 2 4 2 1 0 -1 -1 0 -0 -1 0 -0 -1 1 0 -0 -0 -0 -0 -0 -1 -0 0 -1 -3 -2 -2 -1 -1 -1 -2 -0 0 0 -0 -1 -1 -0 -0 -0 -0 -0 nan
nan -0 1 4 3 1 0 -0 -0 -0 -1 -1 -0 -0 0 0 -1 -0 -0 -0 -0 -1 -1 0 -1 -3 -1 0 0 -1 -1 -2 -1 0 1 1 0 -0 -0 -1 -0 0 -0 -0 nan
nan -0 1 4 2 1 0 0 0 -0 -1 -0 -0 -0 -0 -0 -1 -0 -0 -0 -0 -0 -0 -1 -2 -0 0 0 0 1 -1 -1 -2 0 2 0 0 -0 -1 -0 0 -0 -0 -0 nan
nan -0 2 3 1 1 0 0 -0 -0 -1 -0 -0 -0 -0 -0 -0 -0 -0 -0 -0 -0 -0 -1 -1 -0 0 0 0 -0 -1 0 0 2 0 0 -0 -2 -1 -0 -0 -0 0 -0 nan
nan 0 3 3 0 0 0 0 0 0 -1 0 -0 -0 -0 -0 0 -0 -0 -0 -0 -0 -0 -1 -0 0 -0 -2 0 -1 -1 0 2 0 -1 0 -0 -2 -1 -0 -1 -0 0 0 nan
nan 1 4 2 1 -0 0 0 0 -0 -1 0 0 -0 -0 -0 -0 0 0 0 -0 -0 -0 -1 -1 -1 -1 -1 -1 1 1 1 1 1 0 -1 -1 -1 -1 -1 -1 -0 0 -0 nan
nan 2 2 1 -0 -0 0 0 0 -0 0 0 0 0 -0 -1 -0 0 0 0 0 0 -1 -1 -0 -1 1 -0 -1 1 2 1 0 -0 -1 -2 -0 -2 -1 -0 -0 -0 -0 -0 nan
nan 1 1 1 -0 -0 -0 0 -0 -0 -0 0 0 -0 -0 -0 -0 -0 -0 -1 -1 1 1 -0 -2 -2 0 0 -0 1 1 -0 -0 -0 -2 -1 -1 -3 -1 -1 -0 1 0 0 nan
nan 1 1 0 0 0 0 -0 -0 0 -0 -0 -0 -0 -0 0 0 -0 -1 -0 0 0 0 -0 -2 -1 -0 0 -0 0 -0 1 -0 -2 -2 -1 -2 -1 -1 0 0 -0 1 1 nan
nan 0 0 0 0 0 -0 -0 0 0 -0 0 -0 -0 -0 -0 0 -0 -1 -1 0 0 -0 -0 -1 -2 -1 0 0 -1 1 0 -0 -1 -0 -1 -0 -1 -1 0 0 0 1 0 nan
nan -0 0 0 -0 -0 -0 0 0 0 -0 -0 -0 -0 0 0 0 -0 -0 -1 -0 -0 0 0 -1 -2 -1 0 -0 0 2 1 0 -0 -0 0 -1 -2 -0 0 0 0 0 0 nan
nan -0 -0 0 -0 -0 0 0 0 -0 -1 -0 0 -0 -0 0 0 -0 -1 -0 -0 -0 -0 0 -0 -1 -2 -0 0 1 -0 -1 -1 -0 -0 -1 0 0 1 -0 0 0 0 1 nan
nan -0 0 0 -0 -0 0 0 0 0 -0 0 -0 -0 -0 1 0 -0 -1 -0 0 0 0 -0 -0 -1 -0 -0 -1 -0 -0 -1 -2 -1 -0 -1 -0 0 0 0 -0 0 0 1 nan
nan -0 -0 -1 -1 -0 -0 0 0 -0 -0 -0 -0 -0 0 -0 0 0 -0 -0 -0 0 0 0 0 -0 -1 -0 0 -0 -0 -0 -1 -1 -0 -2 -3 -0 -0 -0 -0 0 1 1 nan
nan -0 -0 -0 -0 -0 0 0 -0 -0 -0 -0 -0 -0 1 0 -0 -1 -0 0 -0 -0 0 -0 -0 -1 -0 -0 0 1 -0 -0 -0 -1 -1 -0 -3 -2 -0 -0 -0 -0 0 0 nan
nan 0 0 -0 -0 0 -0 -0 0 0 -0 -0 -1 -0 0 -0 -0 -0 -0 0 0 0 -0 -0 -0 -1 -1 -1 0 0 1 0 -0 -1 -1 -2 -6 -3 1 -1 -0 -1 -0 -0 nan
nan nan nan nan nan nan nan nan nan nan nan nan nan nan nan nan nan nan nan nan nan nan nan nan nan nan nan nan nan nan nan nan nan nan nan nan nan nan nan nan nan nan nan nan nan
Wind_Speed
22 23 23 24 24 25 26 24 24 21 22 23 24 23 25 26 30 24 28 27 22 21 23 21 15 12 14 21 25 19 16 19 25 23 18 12 10 16 19 21 21 17 14 4 27
25 24 25 25 25 24 25 24 25 26 24 23 23 24 24 26 28 29 12 12 21 24 18 22 23 19 20 19 23 20 15 26 22 19 18 13 11 13 14 18 20 19 7 18 25
30 28 27 27 25 25 24 25 27 28 25 25 24 24 25 22 25 10 9 7 14 18 25 24 23 21 25 27 28 26 24 19 25 22 21 17 12 13 16 17 23 23 17 23 27
32 30 30 30 27 26 25 26 28 30 26 25 23 23 25 17 8 9 7 8 8 3 15 19 25 29 16 24 32 25 30 29 32 23 19 18 22 20 16 19 20 25 27 28 30
37 36 33 30 28 25 27 28 29 30 27 26 23 21 20 16 32 22 22 18 7 3 12 19 26 28 27 17 28 29 26 34 30 30 30 22 21 21 20 15 14 9 28 30 29
43 42 42 32 28 26 27 29 30 28 28 23 23 21 19 28 16 14 17 10 11 12 11 11 9 29 27 29 28 28 32 30 33 31 28 25 23 25 25 19 19 13 20 26 29
49 48 46 42 31 27 27 28 28 28 28 25 23 21 24 38 14 14 19 27 25 19 21 17 11 10 15 22 36 32 26 23 27 32 28 25 29 30 31 23 18 19 20 25 28
49 53 48 44 32 28 27 26 26 27 27 27 25 20 23 16 19 23 17 17 18 19 20 21 15 15 10 14 20 22 25 22 30 23 26 27 28 25 35 32 27 22 24 25 29
50 55 57 42 30 29 26 25 25 26 25 26 15 12 17 8 11 10 9 11 9 12 13 15 12 11 12 18 15 16 23 33 30 27 24 28 29 24 28 38 33 29 26 27 28
46 51 57 43 32 29 23 23 24 20 13 11 10 6 17 10 5 6 6 10 11 11 13 13 10 7 12 16 22 28 32 31 30 29 27 30 27 25 26 36 38 35 31 29 29
48 47 53 50 35 25 19 15 10 8 8 10 10 15 25 16 24 26 24 21 18 15 12 14 12 19 36 30 29 28 30 33 26 24 26 29 26 26 28 28 31 30 34 34 32
45 45 49 49 33 20 15 5 7 5 12 22 26 27 28 18 11 10 5 11 14 19 15 15 24 36 29 26 26 31 33 33 26 25 20 23 28 24 25 28 33 36 37 35 32
43 42 36 40 28 19 12 6 5 3 7 11 6 5 3 10 10 6 4 5 12 16 18 24 27 24 27 30 32 30 31 29 26 21 19 19 24 20 26 30 35 35 37 40 38
43 35 36 36 23 18 10 8 4 3 5 4 5 6 5 3 6 11 11 7 7 11 16 21 27 27 27 30 32 29 32 26 26 19 11 21 13 28 24 24 26 30 37 38 39
38 37 39 38 20 17 13 10 2 2 4 4 5 4 3 6 10 1 8 10 18 20 18 23 15 21 28 33 31 32 26 28 29 19 19 19 11 22 23 28 27 26 35 36 37
31 27 42 32 19 20 17 12 6 3 6 3 4 5 6 9 13 12 16 16 20 22 23 26 30 27 22 24 31 29 25 28 22 23 19 17 18 14 19 26 26 26 35 38 39
35 29 35 29 24 21 20 13 4 4 3 4 5 3 10 16 13 11 11 12 12 16 19 21 25 25 29 21 22 30 23 14 11 12 12 30 21 20 17 21 22 21 28 37 38
19 31 27 19 24 25 21 3 6 4 6 1 4 10 14 8 6 6 12 16 18 16 14 17 19 23 23 31 12 28 22 13 9 19 16 21 17 24 30 28 28 30 30 32 37
33 28 23 22 23 24 10 3 4 4 4 4 7 13 9 4 3 8 12 13 13 3 6 6 14 16 14 20 22 22 21 16 17 18 18 18 23 18 26 22 30 15 29 32 32
32 25 22 24 26 22 3 4 5 5 4 5 5 5 5 8 7 5 8 8 6 3 3 5 10 12 17 11 20 30 17 9 6 6 11 18 27 15 24 23 21 25 18 28 32
32 10 21 22 26 8 4 5 4 6 11 6 8 10 9 12 9 13 7 14 7 10 7 5 7 12 12 9 17 15 21 19 6 14 3 9 17 18 17 24 21 23 32 28 28
10 3 28 27 4 3 6 5 7 6 13 10 5 10 15 16 10 11 14 8 9 7 10 13 4 8 19 16 5 6 6 11 14 7 15 7 3 10 14 13 17 19 18 23 26
6 4 24 25 5 7 2 4 8 8 11 8 8 9 10 11 6 13 13 8 6 6 4 6 4 6 7 5 6 3 8 18 20 19 14 14 6 6 3 6 6 11 14 24 25
9 4 5 17 13 7 7 10 7 14 12 13 10 14 13 14 14 7 8 5 5 13 12 6 6 10 10 7 5 9 14 15 8 17 20 22 28 14 6 6 9 8 15 14 16
8 6 10 6 11 14 7 7 13 9 12 14 11 19 15 5 9 15 16 9 11 13 5 4 8 13 12 18 10 13 15 13 9 8 9 16 20 22 14 10 7 12 12 12 13
9 5 6 5 17 20 13 13 16 11 6 12 17 13 16 15 14 17 16 14 10 9 2 2 5 14 17 17 7 12 18 16 13 16 15 16 26 23 14 17 11 9 10 9 12
21 13 5 6 4 9 16 17 15 14 13 20 15 14 17 17 17 19 15 15 15 13 12 6 5 8 10 13 16 15 4 11 8 10 11 13 24 18 21 16 7 10 8 9 12
Wind_Direction
336 334 331 328 325 321 320 318 317 318 318 318 317 316 313 312 314 308 287 273 263 267 236 246 258 243 226 227 224 229 245 243 246 248 257 256 273 249 231 243 240 205 247 131 165
328 326 325 323 319 318 317 316 317 319 317 317 317 317 312 314 317 303 298 270 271 237 227 229 235 229 224 227 225 227 231 240 247 259 254 260 232 259 213 228 223 204 212 154 161
320 316 310 310 313 314 314 314 313 315 313 316 318 318 317 325 314 209 233 293 269 229 226 228 236 236 247 231 224 227 239 248 245 261 253 255 254 243 261 243 223 209 190 173 171
313 310 308 307 306 306 305 306 309 310 308 310 314 315 314 325 292 191 239 13 11 187 213 227 229 230 238 235 230 237 239 242 258 260 251 256 258 249 241 247 243 217 195 180 179
302 303 302 296 294 290 294 296 300 303 304 309 309 313 318 292 257 257 272 305 316 254 235 222 234 232 233 240 237 235 240 246 250 250 257 244 250 250 241 241 251 260 172 184 191
299 297 300 292 283 278 283 286 294 297 300 305 303 305 295 271 279 276 275 274 296 296 264 267 279 231 240 231 246 235 240 246 248 252 242 248 246 245 239 247 245 229 193 196 197
301 295 292 292 281 274 280 284 291 296 301 301 297 296 272 254 275 271 270 281 284 275 276 257 283 290 240 247 246 248 257 251 236 242 246 239 245 241 242 239 225 217 217 210 207
301 294 286 281 272 266 277 278 285 295 299 296 294 283 263 275 276 272 272 271 277 268 256 256 256 289 260 263 254 241 239 245 240 234 238 232 246 239 235 231 230 231 218 212 210
301 295 288 264 257 259 274 279 288 295 295 293 289 248 268 275 279 286 265 254 285 289 258 249 244 241 253 233 250 239 236 228 240 232 227 224 239 241 239 229 232 231 230 213 212
304 299 290 258 251 250 269 283 299 295 286 277 253 262 246 256 305 301 264 273 283 289 298 224 209 243 235 225 223 221 226 234 230 225 230 233 236 236 235 238 224 226 226 223 210
304 304 286 260 244 244 260 300 286 254 246 248 256 236 272 263 296 280 264 265 269 272 263 227 212 222 226 225 236 240 239 236 240 245 221 233 234 232 232 237 236 215 226 225 213
304 306 290 248 231 228 241 236 268 278 288 275 266 265 266 265 278 292 251 230 236 249 254 234 230 228 237 237 242 241 248 245 249 238 246 241 235 229 236 229 233 224 224 225 218
304 303 288 232 212 217 220 206 233 306 272 291 237 241 249 199 232 261 230 207 249 260 242 243 244 245 238 235 237 233 240 244 255 242 244 250 244 231 228 229 230 230 228 223 222
305 300 256 212 199 210 187 169 277 302 287 199 203 204 183 216 243 234 240 255 253 261 247 256 260 256 247 236 234 236 231 231 251 233 232 221 243 226 221 222 227 226 228 229 225
302 306 224 209 181 168 159 138 139 123 297 117 155 155 208 250 324 110 186 262 269 267 261 251 257 241 246 246 236 242 237 234 229 239 244 229 235 238 208 222 223 219 226 226 228
302 275 211 190 192 154 137 127 132 187 241 179 169 208 259 249 278 264 264 267 267 272 267 263 264 267 258 267 239 245 240 246 233 244 235 213 215 235 225 208 218 217 218 222 222
304 233 191 185 152 151 135 133 131 217 123 183 229 228 287 294 301 284 276 282 268 284 272 274 253 242 248 258 256 231 231 233 196 235 218 208 222 222 233 220 220 212 216 216 216
263 172 176 185 172 153 137 134 205 179 236 169 265 280 284 318 294 290 281 283 269 276 280 271 273 255 219 221 252 218 217 214 232 217 218 211 214 226 223 256 232 223 212 214 215
166 171 171 178 179 155 141 194 210 185 269 280 281 271 272 214 246 310 271 273 279 265 257 307 267 325 274 199 215 235 226 249 260 290 243 217 225 212 220 228 235 243 206 214 220
168 157 164 180 162 152 181 224 200 185 274 257 272 280 266 302 310 255 287 290 289 207 152 304 297 288 264 232 235 231 236 201 232 258 219 231 204 212 211 207 214 214 211 219 219
156 120 165 169 161 158 223 211 180 197 225 236 266 260 270 270 262 282 269 295 344 325 291 259 244 283 305 223 240 234 232 233 292 212 290 214 216 205 221 190 204 205 217 211 204
125 94 164 172 181 209 224 184 168 187 219 238 263 275 269 270 263 261 266 274 357 330 308 299 280 273 271 272 307 233 305 276 237 217 214 285 172 166 214 174 199 207 208 206 211
103 98 175 177 217 213 166 186 184 186 203 219 227 224 238 261 276 239 261 280 276 319 314 334 293 307 257 113 50 341 320 319 255 221 241 209 192 177 112 194 148 183 166 188 198
144 146 161 213 245 263 197 209 202 213 224 227 246 243 255 262 253 270 285 294 294 299 301 294 296 327 312 346 336 298 313 312 331 229 230 231 245 189 192 139 159 149 166 194 196
174 198 192 194 224 226 212 197 206 198 210 212 236 240 242 226 266 266 266 280 311 291 306 17 282 297 307 298 273 269 284 289 300 297 252 211 254 220 191 131 131 171 153 168 179
196 185 191 274 220 206 198 209 218 199 202 213 228 220 227 236 250 278 287 282 276 296 325 305 281 311 300 289 273 284 263 253 266 282 280 251 240 244 244 123 120 126 152 155 167
231 218 164 186 200 197 212 221 210 197 224 240 230 236 243 250 267 278 288 285 277 271 286 277 294 321 291 314 319 279 305 233 212 250 276 260 228 234 217 248 187 137 167 162 161
Height
1520 1516 1512 1509 1505 1502 1498 1494 1491 1489 1486 1484 1482 1479 1476 1472 1467 1466 1462 1461 1462 1461 1463 1465 1466 1469 1469 1469 1469 1469 1464 1453 1446 1445 1438 1439 1441 1441 1443 1443 1442 1445 1447 1447 1453
1517 1514 1510 1507 1503 1500 1496 1493 1490 1485 1483 1479 1478 1475 1472 1469 1465 1460 1457 1453 1451 1451 1455 1459 1460 1463 1463 1464 1463 1461 1455 1447 1441 1436 1434 1437 1438 1439 1441 1442 1439 1443 1449 1451 1452
1513 1510 1506 1503 1499 1496 1493 1490 1487 1483 1480 1478 1476 1473 1470 1466 1462 1452 1448 1446 1442 1443 1449 1454 1457 1457 1457 1456 1454 1452 1445 1442 1439 1437 1436 1435 1436 1438 1436 1436 1435 1439 1446 1449 1451
1509 1505 1502 1499 1495 1492 1488 1486 1482 1479 1477 1474 1473 1471 1469 1470 1459 1448 1445 1444 1444 1444 1448 1450 1451 1449 1451 1446 1448 1444 1441 1442 1439 1436 1437 1437 1437 1433 1435 1434 1433 1435 1439 1445 1448
1501 1498 1496 1492 1489 1487 1484 1481 1477 1475 1473 1471 1469 1468 1467 1465 1444 1445 1444 1444 1445 1445 1446 1446 1447 1445 1438 1440 1441 1434 1434 1436 1436 1436 1434 1436 1433 1431 1429 1432 1433 1432 1432 1439 1444
1495 1491 1487 1485 1483 1480 1478 1477 1474 1470 1467 1465 1465 1465 1464 1453 1440 1440 1441 1440 1442 1442 1440 1441 1438 1437 1436 1436 1432 1428 1430 1429 1430 1429 1429 1430 1429 1430 1428 1430 1431 1433 1434 1437 1440
1487 1484 1480 1477 1475 1473 1472 1470 1468 1466 1462 1461 1460 1460 1456 1437 1438 1437 1437 1435 1437 1437 1436 1436 1437 1436 1429 1431 1427 1428 1425 1421 1419 1422 1421 1426 1422 1419 1425 1426 1427 1428 1431 1434 1437
1478 1473 1469 1467 1466 1465 1464 1462 1459 1458 1456 1454 1453 1453 1442 1434 1434 1431 1431 1430 1429 1431 1432 1433 1434 1433 1431 1428 1424 1422 1423 1422 1406 1414 1416 1420 1408 1413 1420 1420 1421 1423 1425 1428 1431
1469 1464 1460 1458 1458 1458 1458 1457 1454 1452 1449 1447 1448 1449 1438 1430 1430 1428 1427 1428 1427 1426 1427 1430 1434 1432 1430 1426 1428 1420 1412 1405 1406 1401 1407 1406 1405 1409 1411 1414 1414 1417 1418 1420 1425
1462 1457 1452 1450 1451 1450 1451 1451 1449 1446 1444 1445 1445 1449 1434 1428 1427 1427 1428 1427 1426 1425 1424 1426 1429 1429 1426 1424 1414 1398 1397 1387 1385 1387 1395 1395 1395 1401 1402 1404 1405 1408 1411 1413 1417
1454 1450 1444 1441 1442 1444 1446 1447 1449 1445 1442 1437 1434 1430 1423 1425 1424 1422 1423 1424 1424 1424 1422 1418 1421 1415 1396 1400 1397 1397 1393 1385 1379 1380 1384 1384 1388 1392 1396 1397 1397 1399 1404 1405 1409
1445 1440 1434 1430 1433 1436 1441 1445 1446 1446 1438 1430 1426 1425 1422 1425 1423 1417 1417 1421 1417 1413 1416 1417 1400 1385 1398 1404 1405 1401 1393 1381 1376 1375 1378 1379 1376 1382 1386 1387 1388 1392 1395 1398 1402
1435 1430 1426 1423 1426 1430 1435 1440 1443 1444 1440 1422 1421 1420 1420 1420 1419 1417 1417 1415 1414 1411 1408 1402 1382 1394 1397 1397 1396 1396 1392 1386 1387 1375 1381 1387 1380 1375 1375 1378 1382 1383 1386 1391 1394
1426 1421 1415 1415 1424 1426 1431 1438 1442 1442 1436 1414 1416 1416 1418 1418 1415 1413 1415 1416 1410 1405 1404 1396 1389 1390 1387 1386 1390 1386 1385 1387 1391 1392 1395 1388 1384 1369 1367 1367 1369 1374 1378 1381 1385
1416 1415 1408 1407 1412 1422 1429 1435 1440 1442 1430 1414 1414 1415 1415 1416 1412 1406 1409 1411 1406 1401 1402 1387 1384 1384 1386 1374 1374 1375 1383 1382 1385 1394 1385 1376 1382 1353 1351 1359 1358 1362 1369 1374 1379
1408 1404 1399 1404 1411 1418 1426 1434 1439 1441 1424 1409 1411 1412 1413 1411 1407 1404 1405 1406 1404 1399 1391 1387 1386 1380 1372 1370 1369 1371 1383 1380 1382 1380 1379 1368 1372 1350 1340 1337 1343 1350 1359 1366 1371
1402 1397 1396 1401 1409 1418 1425 1434 1438 1428 1414 1408 1408 1411 1410 1405 1400 1399 1399 1398 1397 1395 1384 1375 1367 1368 1371 1375 1365 1367 1374 1369 1371 1379 1355 1350 1354 1342 1328 1327 1331 1339 1345 1353 1360
1398 1398 1401 1402 1409 1416 1425 1432 1423 1411 1411 1410 1413 1411 1407 1403 1398 1402 1401 1393 1389 1386 1385 1383 1365 1353 1351 1361 1365 1350 1369 1361 1348 1360 1342 1336 1338 1320 1327 1325 1327 1329 1336 1343 1347
1392 1398 1402 1406 1410 1415 1422 1420 1408 1415 1414 1412 1411 1406 1402 1404 1411 1408 1399 1385 1383 1387 1394 1384 1360 1347 1339 1348 1360 1355 1352 1366 1361 1348 1321 1306 1309 1310 1311 1317 1322 1325 1326 1331 1336
1392 1396 1402 1404 1410 1416 1420 1411 1412 1417 1418 1417 1413 1408 1411 1406 1410 1412 1401 1383 1379 1385 1394 1387 1379 1352 1343 1346 1348 1348 1346 1364 1365 1343 1324 1296 1294 1297 1298 1308 1311 1318 1321 1323 1329
1390 1399 1407 1410 1415 1419 1413 1409 1411 1417 1420 1417 1412 1410 1408 1410 1411 1411 1404 1391 1385 1386 1391 1390 1383 1354 1347 1344 1340 1343 1345 1348 1356 1344 1321 1308 1293 1279 1283 1293 1303 1305 1308 1317 1324
1395 1403 1409 1410 1415 1413 1408 1407 1412 1415 1416 1414 1414 1413 1409 1407 1407 1407 1398 1390 1390 1391 1388 1384 1377 1363 1345 1337 1343 1350 1356 1358 1343 1329 1326 1328 1286 1265 1276 1284 1294 1299 1307 1315 1321
1399 1405 1408 1411 1408 1405 1409 1408 1409 1411 1410 1410 1408 1406 1403 1403 1407 1399 1395 1390 1391 1391 1391 1387 1371 1361 1334 1340 1351 1354 1353 1355 1334 1329 1328 1326 1292 1277 1280 1281 1292 1296 1303 1309 1315
1400 1406 1412 1409 1403 1401 1400 1402 1404 1406 1406 1408 1405 1403 1401 1399 1398 1398 1392 1390 1389 1389 1388 1388 1381 1381 1366 1360 1366 1358 1356 1355 1343 1317 1317 1314 1293 1281 1281 1285 1290 1295 1300 1305 1310
1395 1394 1392 1399 1396 1397 1398 1398 1397 1399 1401 1399 1399 1398 1397 1401 1395 1390 1385 1388 1388 1386 1387 1391 1384 1372 1364 1358 1353 1358 1351 1349 1348 1340 1321 1299 1302 1278 1279 1282 1287 1294 1298 1304 1307
1390 1391 1391 1389 1386 1389 1390 1385 1390 1393 1395 1391 1391 1389 1391 1392 1391 1389 1387 1386 1388 1388 1388 1389 1381 1371 1359 1349 1342 1342 1335 1340 1340 1337 1321 1315 1299 1277 1275 1281 1289 1296 1300 1304 1307
1379 1379 1380 1381 1382 1381 1377 1378 1382 1389 1390 1386 1385 1386 1385 1383 1385 1384 1384 1384 1383 1383 1385 1386 1381 1375 1359 1347 1347 1336 1317 1315 1330 1322 1316 1305 1284 1273 1277 1277 1284 1296 1302 1304 1306